QPF
0.00 0.00 0.00 0.00 0.00 0.00 0.00 0.06 0.03 0.02 0.10 0.10 0.03 0.01 0.00 0.00 0.00 0.00 0.00 0.00 0.00 0.00 0.00 0.00 0.00 0.01 0.01 0.00 0.00 0.00 0.00 0.00 0.00 0.00 0.00 0.00 0.00 0.00 0.00 0.00 0.00 0.00 0.00 0.00
0.00 0.00 0.00 0.00 0.00 0.00 0.03 0.07 0.01 0.02 0.08 0.06 0.02 0.00 0.00 0.00 0.00 0.00 0.00 0.00 0.00 0.00 0.00 0.00 0.00 0.00 0.00 0.00 0.00 0.00 0.00 0.00 0.00 0.00 0.00 0.00 0.00 0.00 0.00 0.00 0.00 0.00 0.00 0.00
0.00 0.00 0.00 0.00 0.00 0.00 0.03 0.04 0.01 0.01 0.06 0.03 0.01 0.01 0.01 0.00 0.00 0.00 0.00 0.00 0.01 0.01 0.01 0.00 0.00 0.00 0.00 0.00 0.00 0.00 0.00 0.00 0.00 0.01 0.00 0.00 0.00 0.00 0.00 0.00 0.00 0.00 0.00 0.00
0.00 0.00 0.00 0.00 0.00 0.00 0.02 0.03 0.00 0.01 0.02 0.00 0.00 0.00 0.01 0.01 0.01 0.00 0.00 0.01 0.01 0.01 0.02 0.01 0.01 0.00 0.00 0.00 0.00 0.00 0.00 0.00 0.00 0.00 0.00 0.00 0.00 0.00 0.00 0.00 0.00 0.00 0.00 0.00
0.00 0.00 0.00 0.00 0.00 0.01 0.03 0.01 0.00 0.00 0.00 0.00 0.02 0.03 0.01 0.00 0.00 0.00 0.00 0.01 0.00 0.01 0.02 0.02 0.01 0.02 0.02 0.02 0.02 0.02 0.01 0.00 0.00 0.00 0.00 0.00 0.00 0.00 0.00 0.00 0.00 0.00 0.00 0.00
0.00 0.00 0.00 0.00 0.01 0.02 0.01 0.01 0.01 0.03 0.01 0.00 0.01 0.01 0.01 0.00 0.01 0.00 0.00 0.01 0.01 0.01 0.00 0.00 0.01 0.03 0.04 0.03 0.03 0.01 0.00 0.00 0.00 0.00 0.00 0.00 0.01 0.00 0.00 0.00 0.00 0.00 0.00 0.00
0.00 0.00 0.01 0.01 0.01 0.01 0.01 0.01 0.04 0.04 0.01 0.00 0.00 0.00 0.00 0.00 0.00 0.01 0.00 0.00 0.01 0.00 0.00 0.01 0.00 0.01 0.01 0.03 0.01 0.02 0.01 0.01 0.01 0.01 0.01 0.01 0.00 0.00 0.00 0.00 0.00 0.00 0.00 0.00
0.00 0.00 0.00 0.00 0.00 0.01 0.02 0.03 0.06 0.05 0.02 0.01 0.00 0.00 0.00 0.00 0.00 0.00 0.00 0.00 0.00 0.00 0.02 0.03 0.03 0.01 0.02 0.02 0.02 0.01 0.00 0.02 0.02 0.02 0.01 0.01 0.00 0.00 0.00 0.00 0.00 0.00 0.00 0.00
0.00 0.00 0.00 0.01 0.01 0.01 0.04 0.04 0.06 0.06 0.02 0.00 0.00 0.01 0.01 0.02 0.02 0.02 0.00 0.00 0.00 0.02 0.03 0.04 0.02 0.01 0.01 0.01 0.01 0.02 0.03 0.02 0.02 0.01 0.01 0.01 0.00 0.00 0.00 0.00 0.00 0.00 0.00 0.00
0.01 0.00 0.00 0.01 0.02 0.03 0.04 0.01 0.03 0.05 0.02 0.00 0.00 0.01 0.01 0.01 0.02 0.03 0.02 0.01 0.03 0.03 0.04 0.03 0.03 0.01 0.00 0.01 0.01 0.02 0.03 0.03 0.02 0.02 0.03 0.01 0.00 0.00 0.00 0.00 0.00 0.00 0.00 0.00
0.01 0.00 0.00 0.00 0.02 0.05 0.05 0.01 0.01 0.01 0.01 0.01 0.01 0.01 0.00 0.02 0.03 0.03 0.02 0.05 0.05 0.07 0.04 0.03 0.02 0.03 0.01 0.02 0.00 0.01 0.02 0.04 0.02 0.02 0.04 0.02 0.00 0.00 0.00 0.00 0.00 0.00 0.00 0.00
0.02 0.01 0.01 0.00 0.00 0.03 0.05 0.02 0.01 0.01 0.01 0.02 0.03 0.02 0.00 0.00 0.01 0.03 0.06 0.06 0.07 0.08 0.06 0.05 0.01 0.02 0.02 0.02 0.02 0.01 0.02 0.02 0.01 0.01 0.01 0.00 0.00 0.00 0.00 0.00 0.00 0.00 0.00 0.00
0.02 0.02 0.02 0.01 0.00 0.00 0.02 0.02 0.03 0.02 0.01 0.01 0.00 0.00 0.00 0.00 0.00 0.01 0.03 0.03 0.04 0.04 0.03 0.01 0.00 0.01 0.02 0.02 0.01 0.01 0.00 0.00 0.03 0.02 0.00 0.00 0.00 0.00 0.02 0.02 0.01 0.00 0.00 0.00
0.01 0.01 0.01 0.00 0.00 0.00 0.01 0.03 0.05 0.03 0.03 0.02 0.00 0.00 0.00 0.00 0.00 0.00 0.00 0.03 0.05 0.05 0.02 0.01 0.00 0.00 0.01 0.01 0.02 0.03 0.02 0.01 0.01 0.01 0.01 0.01 0.01 0.00 0.01 0.01 0.01 0.00 0.00 0.00
0.00 0.02 0.01 0.00 0.00 0.00 0.02 0.04 0.06 0.06 0.05 0.05 0.02 0.01 0.00 0.00 0.00 0.00 0.00 0.00 0.01 0.06 0.05 0.01 0.00 0.00 0.00 0.00 0.00 0.01 0.01 0.03 0.03 0.02 0.02 0.03 0.02 0.01 0.01 0.01 0.00 0.00 0.00 0.00
0.02 0.01 0.01 0.00 0.00 0.01 0.08 0.05 0.04 0.05 0.06 0.05 0.01 0.00 0.00 0.00 0.00 0.00 0.00 0.00 0.01 0.04 0.03 0.02 0.00 0.00 0.02 0.02 0.01 0.00 0.00 0.00 0.00 0.01 0.00 0.01 0.00 0.02 0.00 0.00 0.00 0.00 0.00 0.00
0.02 0.01 0.01 0.00 0.00 0.02 0.08 0.05 0.03 0.04 0.06 0.06 0.02 0.00 0.00 0.00 0.01 0.02 0.01 0.01 0.02 0.04 0.03 0.01 0.01 0.01 0.03 0.02 0.00 0.00 0.00 0.00 0.00 0.00 0.01 0.01 0.00 0.00 0.00 0.00 0.00 0.00 0.00 0.00
0.01 0.00 0.01 0.02 0.03 0.02 0.01 0.02 0.00 0.01 0.02 0.05 0.04 0.01 0.04 0.00 0.01 0.04 0.03 0.02 0.05 0.04 0.03 0.01 0.00 0.01 0.03 0.02 0.00 0.00 0.00 0.00 0.00 0.00 0.00 0.00 0.00 0.00 0.00 0.00 0.00 0.00 0.00 0.00
0.00 0.00 0.01 0.03 0.04 0.03 0.02 0.02 0.01 0.00 0.01 0.03 0.02 0.02 0.06 0.03 0.02 0.01 0.00 0.02 0.02 0.01 0.01 0.01 0.01 0.01 0.02 0.00 0.00 0.00 0.00 0.00 0.00 0.00 0.00 0.00 0.00 0.00 0.00 0.00 0.00 0.00 0.00 0.00
0.00 0.01 0.02 0.01 0.01 0.01 0.03 0.03 0.04 0.02 0.02 0.01 0.00 0.01 0.05 0.02 0.02 0.01 0.01 0.00 0.01 0.03 0.01 0.01 0.01 0.00 0.00 0.00 0.00 0.00 0.00 0.00 0.00 0.00 0.00 0.00 0.00 0.00 0.00 0.00 0.00 0.00 0.00 0.00
0.01 0.00 0.01 0.04 0.05 0.04 0.08 0.05 0.02 0.01 0.01 0.00 0.00 0.00 0.01 0.04 0.08 0.06 0.01 0.02 0.02 0.04 0.02 0.01 0.02 0.00 0.00 0.00 0.00 0.00 0.00 0.00 0.00 0.00 0.00 0.00 0.00 0.00 0.00 0.00 0.00 0.00 0.00 0.00
0.00 0.03 0.03 0.04 0.05 0.08 0.03 0.02 0.03 0.03 0.03 0.03 0.01 0.01 0.02 0.03 0.04 0.04 0.02 0.02 0.02 0.02 0.02 0.02 0.02 0.00 0.00 0.00 0.00 0.00 0.00 0.00 0.00 0.00 0.00 0.00 0.00 0.00 0.00 0.00 0.00 0.00 0.00 0.00
0.02 0.02 0.02 0.04 0.03 0.03 0.02 0.03 0.02 0.03 0.03 0.02 0.01 0.01 0.00 0.00 0.00 0.01 0.01 0.01 0.02 0.01 0.01 0.02 0.01 0.00 0.00 0.00 0.00 0.00 0.00 0.00 0.00 0.00 0.00 0.00 0.00 0.00 0.00 0.00 0.00 0.00 0.00 0.00
0.06 0.03 0.02 0.02 0.02 0.00 0.01 0.04 0.04 0.03 0.03 0.03 0.01 0.00 0.00 0.01 0.01 0.01 0.01 0.01 0.00 0.00 0.00 0.00 0.00 0.00 0.00 0.01 0.00 0.00 0.00 0.00 0.00 0.00 0.00 0.00 0.00 0.00 0.00 0.00 0.00 0.00 0.00 0.00
0.02 0.05 0.04 0.01 0.01 0.02 0.05 0.03 0.01 0.00 0.00 0.01 0.02 0.01 0.00 0.00 0.00 0.01 0.01 0.01 0.00 0.00 0.01 0.01 0.00 0.00 0.00 0.00 0.00 0.00 0.00 0.00 0.00 0.00 0.00 0.00 0.00 0.00 0.00 0.00 0.00 0.00 0.00 0.00
0.05 0.03 0.01 0.01 0.01 0.01 0.00 0.01 0.00 0.00 0.01 0.03 0.02 0.02 0.02 0.01 0.01 0.01 0.00 0.00 0.01 0.01 0.00 0.00 0.00 0.00 0.00 0.00 0.00 0.00 0.00 0.00 0.00 0.00 0.00 0.00 0.00 0.00 0.00 0.00 0.00 0.00 0.00 0.00
0.01 0.01 0.01 0.00 0.00 0.00 0.01 0.01 0.01 0.00 0.01 0.03 0.05 0.02 0.02 0.01 0.00 0.00 0.00 0.01 0.01 0.00 0.00 0.00 0.00 0.00 0.00 0.00 0.00 0.00 0.00 0.00 0.00 0.00 0.00 0.00 0.00 0.00 0.00 0.00 0.00 0.00 0.00 0.00
MSLP
1018.08 1018.50 1018.51 1018.60 1018.61 1018.56 1018.49 1017.87 1017.02 1015.89 1016.15 1017.15 1016.68 1015.85 1014.35 1013.65 1012.02 1011.81 1011.22 1011.42 1011.07 1010.76 1010.30 1009.74 1009.53 1009.16 1009.02 1009.32 1009.52 1008.85 1008.54 1008.14 1005.28 1003.56 1003.26 1002.97 1002.83 1003.17 1003.85 1004.44 1004.65 1004.19 1003.42 1001.25
1017.97 1018.23 1018.30 1018.40 1018.59 1018.55 1017.81 1017.54 1016.92 1016.27 1016.43 1016.42 1016.27 1015.21 1014.41 1013.63 1012.73 1011.85 1011.66 1011.07 1010.78 1010.82 1010.54 1010.39 1009.81 1009.11 1008.65 1009.18 1010.81 1010.98 1011.07 1009.95 1007.96 1005.56 1004.80 1004.24 1004.36 1004.62 1004.85 1005.04 1005.41 1004.99 1003.94 1001.40
1017.64 1017.91 1018.14 1018.35 1018.54 1018.62 1018.44 1018.25 1017.43 1016.60 1016.42 1016.39 1016.46 1015.44 1014.53 1013.50 1012.35 1011.65 1011.75 1011.12 1011.13 1011.05 1010.76 1010.35 1009.76 1009.56 1009.56 1009.87 1011.44 1012.04 1012.57 1011.79 1010.73 1008.83 1006.53 1006.21 1006.19 1006.84 1006.38 1006.08 1006.00 1004.86 1003.94 1002.58
1017.38 1017.59 1017.87 1018.13 1018.24 1018.38 1018.70 1018.10 1016.83 1015.25 1015.80 1015.97 1015.56 1015.29 1014.54 1013.64 1012.97 1012.07 1011.55 1011.12 1011.03 1011.17 1010.94 1010.61 1010.25 1009.87 1009.47 1009.32 1010.61 1012.43 1012.68 1012.15 1011.57 1010.30 1008.54 1007.37 1006.72 1006.80 1007.49 1006.90 1006.47 1005.09 1003.81 1002.90
1016.95 1017.20 1017.48 1017.75 1017.95 1018.28 1018.41 1017.51 1016.66 1015.79 1015.04 1014.51 1014.10 1013.99 1013.49 1012.96 1012.07 1012.10 1011.76 1011.10 1011.89 1012.02 1011.63 1010.47 1010.07 1010.37 1010.05 1009.79 1010.53 1012.14 1012.13 1011.01 1010.71 1010.17 1009.17 1008.10 1006.87 1006.49 1006.15 1005.80 1005.08 1004.10 1004.28 1002.30
1016.46 1016.74 1017.07 1017.35 1017.65 1018.03 1017.18 1016.68 1016.07 1016.33 1015.23 1014.53 1013.97 1013.00 1012.51 1012.14 1011.84 1011.40 1011.20 1011.20 1011.76 1012.06 1012.16 1011.18 1009.57 1009.31 1009.53 1010.34 1010.78 1011.50 1012.28 1012.02 1010.75 1009.45 1008.76 1007.70 1006.42 1005.52 1004.98 1004.13 1003.56 1002.92 1002.12 1001.47
1016.00 1016.32 1016.60 1016.91 1017.21 1017.47 1016.90 1016.60 1016.46 1016.63 1015.24 1014.67 1013.69 1012.71 1012.15 1011.64 1011.20 1010.73 1010.42 1011.02 1011.52 1010.96 1011.62 1011.79 1009.97 1009.41 1009.45 1009.65 1009.98 1010.80 1011.30 1011.66 1011.00 1009.41 1008.32 1006.37 1005.18 1004.62 1003.50 1002.67 1001.87 1001.54 1001.24 1000.89
1015.45 1015.81 1016.10 1016.38 1016.64 1016.97 1016.94 1016.44 1016.88 1016.70 1015.25 1014.34 1013.45 1012.79 1012.39 1011.85 1011.27 1010.80 1010.07 1009.97 1009.99 1010.57 1011.94 1011.76 1009.61 1008.52 1008.56 1008.22 1008.65 1009.80 1010.95 1010.54 1010.04 1009.09 1007.81 1006.10 1004.72 1003.66 1002.89 1002.23 1001.84 1001.11 1000.89 1000.56
1014.91 1015.25 1015.54 1015.77 1015.92 1016.22 1016.68 1016.45 1016.74 1017.12 1016.45 1014.38 1013.96 1013.37 1012.78 1012.13 1011.62 1011.07 1010.31 1010.01 1009.66 1009.70 1010.88 1010.58 1009.57 1008.14 1007.35 1006.91 1006.60 1007.53 1008.56 1009.37 1009.35 1008.59 1007.46 1005.45 1003.48 1002.66 1001.96 1002.07 1002.32 1001.66 1001.47 1000.59
1014.34 1014.69 1014.95 1015.13 1015.27 1015.59 1016.06 1016.11 1016.38 1016.83 1016.33 1014.15 1014.59 1013.70 1012.95 1012.54 1012.22 1011.83 1010.92 1010.23 1009.73 1009.20 1009.86 1009.96 1009.68 1008.12 1007.20 1006.91 1006.73 1007.10 1007.89 1008.08 1007.01 1006.01 1005.74 1004.04 1002.60 1001.57 1001.21 1001.10 1001.80 1001.26 1001.04 1000.84
1013.82 1014.17 1014.42 1014.64 1014.90 1015.21 1015.79 1015.95 1016.32 1016.74 1016.14 1014.24 1014.43 1013.33 1012.66 1012.53 1012.85 1012.50 1010.84 1011.21 1009.57 1009.70 1009.68 1009.39 1008.51 1007.69 1006.84 1006.47 1006.16 1005.75 1006.53 1007.03 1006.49 1005.95 1004.77 1003.87 1002.18 1001.87 1001.38 1000.97 1000.65 1000.81 1001.16 1001.21
1013.41 1013.69 1013.99 1014.24 1014.51 1014.83 1015.30 1015.71 1016.03 1016.37 1016.21 1014.64 1013.73 1012.88 1012.17 1011.52 1011.07 1012.39 1011.93 1010.56 1009.55 1009.34 1009.50 1008.95 1008.78 1008.02 1007.13 1006.40 1005.67 1005.63 1005.04 1005.40 1005.78 1005.13 1003.28 1002.23 1001.48 1001.29 1001.08 1001.17 1001.40 1001.65 1001.72 1001.97
1012.99 1013.35 1013.70 1013.98 1014.21 1014.44 1014.88 1014.90 1015.25 1015.81 1015.40 1014.52 1013.37 1011.46 1010.38 1010.42 1010.35 1010.98 1010.80 1009.94 1009.52 1009.94 1008.94 1008.70 1008.73 1008.27 1007.85 1006.58 1005.45 1004.84 1004.34 1003.97 1004.70 1004.98 1003.19 1003.08 1002.06 1001.44 1002.19 1002.89 1003.22 1002.53 1002.71 1002.96
1012.77 1013.14 1013.46 1013.71 1013.94 1014.22 1014.53 1014.57 1014.79 1015.45 1014.67 1012.75 1010.35 1008.62 1008.55 1008.77 1008.74 1008.64 1008.88 1008.71 1008.90 1009.66 1009.05 1008.72 1008.32 1007.58 1006.95 1006.25 1005.94 1005.83 1004.89 1003.97 1003.70 1003.43 1003.63 1003.70 1002.52 1003.21 1001.78 1002.67 1003.47 1003.09 1003.26 1003.95
1012.57 1012.86 1013.16 1013.56 1013.78 1013.95 1014.06 1013.94 1013.95 1014.05 1014.28 1012.18 1010.40 1008.78 1007.65 1007.40 1007.42 1007.33 1007.42 1007.74 1008.09 1008.61 1009.18 1008.82 1007.97 1007.00 1006.52 1005.54 1005.02 1003.63 1003.38 1003.16 1003.58 1003.63 1003.41 1002.77 1001.93 1002.77 1002.41 1002.71 1003.33 1003.54 1003.92 1004.51
1012.44 1012.80 1013.14 1013.43 1013.64 1013.86 1013.80 1013.65 1012.79 1012.84 1013.28 1012.87 1010.53 1007.83 1006.98 1006.53 1006.63 1007.01 1007.14 1007.30 1007.64 1008.48 1009.00 1008.38 1007.21 1006.59 1006.45 1005.30 1003.60 1002.43 1001.92 1001.55 1001.98 1002.08 1001.71 1000.94 1001.63 1002.54 1002.86 1002.98 1003.64 1004.38 1004.85 1005.15
1012.36 1012.70 1013.00 1013.26 1013.49 1013.63 1013.53 1013.80 1013.57 1012.98 1012.91 1012.73 1010.91 1008.22 1006.49 1006.13 1006.20 1006.36 1006.83 1007.17 1007.44 1007.97 1008.51 1008.06 1007.34 1006.32 1006.16 1004.96 1002.99 1001.88 1001.67 1001.18 1000.59 1000.99 1001.51 1002.14 1002.46 1002.89 1003.19 1003.72 1004.22 1005.06 1006.25 1006.63
1012.38 1012.74 1013.02 1013.27 1013.49 1013.65 1013.28 1013.21 1013.35 1013.02 1013.26 1012.70 1011.03 1008.59 1007.11 1006.56 1006.37 1006.92 1007.23 1007.29 1007.59 1007.87 1007.80 1007.11 1006.42 1005.94 1005.37 1003.54 1001.85 1001.54 1000.60 1000.10 999.95 1000.13 1001.08 1001.77 1002.77 1003.17 1003.64 1004.54 1004.98 1005.43 1006.19 1006.71
1012.41 1012.81 1013.15 1013.29 1013.44 1012.80 1011.68 1011.73 1012.68 1012.68 1013.04 1011.92 1010.45 1009.00 1008.04 1007.90 1006.99 1007.23 1008.05 1008.09 1007.82 1007.51 1006.95 1006.20 1006.17 1004.67 1002.97 1001.49 1001.00 1000.44 999.88 999.57 999.85 1000.50 1001.61 1002.60 1003.16 1003.64 1004.51 1005.35 1006.00 1005.93 1006.58 1007.41
1012.51 1012.87 1012.93 1012.90 1012.18 1011.82 1012.02 1012.77 1012.53 1012.36 1011.82 1011.23 1009.51 1008.91 1008.44 1008.53 1007.80 1007.86 1008.24 1008.11 1007.55 1006.41 1005.20 1005.00 1004.20 1002.06 1000.96 1000.36 999.86 999.39 999.01 999.31 999.57 1000.33 1001.61 1002.35 1003.17 1003.93 1004.74 1005.21 1005.54 1006.31 1007.16 1008.29
1012.26 1012.63 1012.24 1012.06 1011.63 1011.82 1011.57 1011.54 1011.52 1010.75 1010.11 1008.98 1007.57 1007.25 1007.14 1007.69 1007.12 1007.10 1007.27 1006.94 1006.46 1005.06 1003.57 1003.36 1001.90 1000.01 999.07 998.67 998.16 998.19 998.63 999.13 999.62 1000.38 1001.57 1002.20 1002.91 1003.84 1004.51 1005.17 1005.93 1006.86 1007.98 1009.24
1011.44 1011.42 1011.67 1011.95 1011.62 1010.97 1010.82 1010.07 1009.40 1008.93 1007.77 1006.74 1006.37 1006.03 1005.88 1006.03 1006.21 1006.47 1006.72 1006.20 1005.56 1003.77 1003.43 1002.72 1000.94 999.53 998.36 997.56 996.77 996.93 998.01 998.88 999.90 1001.04 1001.89 1002.19 1002.82 1003.63 1004.52 1005.35 1006.46 1007.63 1009.01 1010.50
1011.09 1011.41 1011.73 1011.06 1010.39 1009.93 1009.28 1007.96 1007.54 1006.99 1006.70 1006.26 1006.23 1006.22 1006.17 1006.49 1006.45 1006.34 1006.14 1005.04 1003.75 1002.86 1002.68 1001.35 1000.66 999.85 998.71 998.24 998.28 998.69 999.11 999.97 1000.93 1001.60 1001.86 1002.26 1003.18 1004.09 1004.94 1006.23 1007.60 1009.12 1010.66 1011.80
1010.94 1011.15 1010.64 1009.83 1008.84 1008.04 1006.90 1006.71 1006.59 1006.45 1006.22 1005.86 1005.57 1005.55 1005.56 1005.62 1005.81 1005.27 1004.89 1003.96 1003.41 1002.75 1002.02 1001.20 1001.00 1000.43 999.79 999.44 999.91 1000.07 1000.63 1001.39 1001.73 1001.91 1002.42 1003.38 1004.52 1005.61 1006.57 1007.81 1009.21 1010.43 1011.80 1012.88
1011.03 1010.09 1008.94 1008.01 1007.27 1006.69 1006.60 1006.31 1006.00 1005.56 1005.11 1004.58 1004.64 1004.70 1004.73 1004.65 1004.59 1004.41 1004.05 1003.52 1002.97 1002.43 1002.00 1001.94 1001.95 1001.43 1000.97 1000.95 1000.93 1001.38 1002.07 1002.65 1002.97 1003.44 1004.31 1005.33 1006.34 1007.23 1008.48 1009.48 1010.46 1011.47 1012.53 1013.33
1010.46 1009.13 1008.06 1007.32 1006.94 1006.68 1006.58 1006.36 1005.86 1005.45 1005.10 1004.44 1004.37 1003.92 1003.86 1003.66 1003.63 1003.40 1003.13 1002.52 1001.91 1002.29 1002.86 1003.27 1003.14 1002.63 1002.31 1002.36 1002.48 1002.91 1003.62 1004.23 1004.81 1005.41 1006.10 1006.90 1007.67 1008.43 1009.58 1010.56 1011.41 1012.28 1012.94 1013.56
1009.37 1007.90 1007.36 1007.15 1006.98 1006.87 1006.63 1006.27 1005.94 1005.64 1005.40 1004.27 1003.48 1003.25 1002.63 1002.77 1002.73 1002.67 1002.22 1002.30 1002.81 1003.32 1003.65 1004.02 1004.17 1004.04 1003.80 1003.60 1003.98 1004.47 1005.07 1005.63 1006.15 1006.63 1007.32 1008.01 1008.74 1009.54 1010.39 1011.18 1012.13 1012.73 1013.37 1013.90
Thickness
5377 5378 5382 5386 5390 5397 5399 5404 5409 5435 5434 5419 5423 5432 5471 5484 5498 5498 5500 5496 5503 5510 5524 5528 5533 5539 5550 5552 5555 5558 5560 5552 5580 5604 5620 5627 5622 5614 5610 5577 5586 5598 5597 5619
5365 5367 5370 5374 5376 5380 5389 5391 5400 5416 5417 5407 5412 5442 5450 5462 5473 5481 5485 5488 5499 5507 5507 5504 5520 5535 5555 5550 5532 5531 5536 5531 5546 5575 5593 5601 5586 5594 5595 5588 5574 5571 5569 5606
5355 5356 5357 5359 5360 5363 5366 5365 5375 5393 5399 5400 5398 5415 5422 5439 5464 5468 5469 5478 5482 5485 5489 5505 5506 5515 5531 5535 5513 5514 5509 5503 5517 5535 5564 5565 5554 5541 5559 5568 5548 5566 5569 5590
5345 5346 5347 5348 5349 5350 5350 5354 5372 5400 5383 5388 5399 5405 5414 5422 5424 5449 5459 5463 5467 5470 5471 5480 5486 5503 5516 5528 5503 5495 5491 5493 5507 5518 5536 5547 5551 5548 5533 5537 5542 5548 5570 5573
5339 5340 5340 5340 5340 5338 5342 5347 5363 5378 5392 5405 5408 5406 5409 5419 5438 5438 5436 5449 5444 5443 5442 5472 5472 5481 5488 5496 5499 5479 5489 5495 5505 5496 5516 5526 5533 5536 5540 5545 5553 5556 5545 5564
5336 5336 5335 5334 5334 5332 5346 5355 5362 5353 5375 5386 5392 5406 5413 5417 5427 5435 5435 5439 5428 5423 5433 5458 5477 5481 5480 5477 5475 5477 5466 5470 5488 5496 5519 5519 5504 5529 5537 5545 5554 5557 5552 5573
5331 5330 5329 5328 5328 5328 5338 5344 5345 5337 5358 5370 5384 5400 5407 5412 5421 5423 5431 5424 5414 5443 5436 5431 5458 5459 5464 5468 5473 5470 5462 5462 5470 5485 5502 5490 5520 5534 5548 5549 5561 5563 5563 5568
5327 5325 5324 5323 5322 5322 5326 5333 5329 5328 5346 5368 5377 5385 5389 5398 5406 5411 5423 5427 5429 5433 5410 5411 5435 5446 5453 5465 5477 5464 5447 5456 5466 5473 5479 5493 5510 5531 5537 5534 5537 5561 5556 5560
5321 5319 5318 5317 5317 5316 5316 5321 5320 5313 5320 5347 5362 5363 5371 5377 5385 5393 5407 5419 5424 5426 5411 5418 5420 5443 5466 5471 5484 5479 5468 5461 5456 5460 5457 5466 5515 5535 5542 5528 5515 5543 5542 5552
5314 5312 5310 5310 5311 5310 5309 5312 5310 5305 5307 5347 5337 5343 5355 5367 5372 5370 5390 5402 5412 5423 5409 5406 5411 5421 5460 5452 5460 5464 5465 5449 5465 5474 5468 5490 5521 5537 5542 5510 5516 5536 5537 5540
5306 5304 5303 5303 5303 5302 5300 5303 5300 5297 5302 5329 5327 5342 5346 5353 5346 5347 5382 5383 5405 5400 5399 5405 5424 5430 5452 5455 5464 5468 5456 5451 5464 5465 5452 5463 5517 5516 5509 5520 5529 5534 5533 5528
5299 5298 5297 5297 5297 5297 5296 5296 5296 5294 5295 5315 5322 5331 5341 5351 5362 5349 5355 5380 5400 5399 5388 5399 5402 5416 5429 5440 5428 5459 5456 5457 5451 5472 5483 5500 5514 5514 5518 5514 5512 5514 5516 5514
5292 5291 5290 5291 5292 5292 5293 5297 5297 5295 5298 5309 5317 5336 5350 5354 5357 5353 5358 5372 5386 5378 5400 5402 5402 5399 5407 5416 5437 5449 5461 5471 5452 5443 5473 5481 5496 5505 5485 5481 5486 5493 5495 5496
5283 5283 5285 5288 5289 5289 5291 5294 5296 5291 5299 5319 5346 5360 5361 5361 5366 5373 5375 5379 5381 5376 5388 5392 5396 5403 5417 5417 5419 5409 5436 5453 5459 5460 5463 5457 5469 5471 5485 5473 5474 5480 5481 5479
5281 5282 5284 5286 5287 5288 5290 5294 5297 5300 5302 5323 5336 5355 5370 5374 5377 5382 5385 5386 5386 5381 5370 5377 5390 5408 5411 5424 5425 5436 5450 5444 5436 5437 5450 5447 5464 5468 5470 5467 5463 5466 5466 5463
5285 5284 5284 5284 5285 5287 5290 5292 5304 5306 5306 5309 5331 5364 5373 5381 5382 5382 5383 5386 5386 5375 5367 5379 5398 5408 5401 5401 5425 5450 5456 5457 5448 5447 5459 5472 5470 5458 5457 5459 5452 5447 5449 5445
5285 5284 5284 5283 5284 5285 5289 5294 5296 5302 5305 5308 5326 5354 5376 5381 5384 5387 5385 5385 5386 5381 5369 5373 5385 5399 5394 5390 5412 5443 5445 5451 5461 5458 5451 5447 5450 5446 5448 5443 5435 5426 5417 5421
5283 5282 5281 5280 5280 5281 5288 5292 5293 5299 5298 5306 5319 5346 5364 5374 5375 5370 5373 5376 5375 5369 5371 5383 5387 5391 5392 5395 5428 5438 5449 5456 5461 5457 5451 5449 5436 5436 5434 5428 5424 5420 5417 5416
5281 5279 5277 5278 5279 5285 5299 5301 5297 5299 5299 5308 5322 5336 5344 5348 5363 5365 5357 5360 5363 5370 5368 5381 5378 5390 5395 5421 5433 5439 5449 5452 5452 5445 5438 5429 5426 5425 5416 5409 5405 5413 5409 5405
5279 5279 5280 5278 5289 5294 5296 5294 5295 5297 5306 5311 5327 5340 5338 5340 5357 5354 5356 5352 5360 5373 5382 5389 5380 5402 5423 5431 5436 5443 5448 5447 5448 5440 5430 5428 5421 5414 5407 5407 5412 5408 5404 5397
5284 5279 5287 5293 5297 5299 5304 5304 5304 5317 5321 5334 5350 5357 5356 5352 5362 5366 5365 5367 5369 5380 5402 5392 5403 5422 5433 5438 5441 5443 5444 5444 5443 5438 5429 5427 5420 5413 5410 5410 5408 5403 5395 5387
5293 5296 5296 5295 5299 5309 5308 5318 5331 5334 5351 5362 5365 5374 5376 5375 5373 5370 5365 5370 5372 5391 5390 5393 5407 5424 5441 5449 5456 5453 5446 5444 5437 5428 5421 5424 5421 5417 5414 5411 5404 5395 5384 5366
5297 5297 5292 5305 5316 5314 5320 5335 5348 5357 5358 5365 5364 5366 5363 5359 5361 5362 5366 5377 5392 5404 5396 5416 5410 5422 5434 5440 5434 5432 5435 5430 5425 5422 5427 5425 5421 5416 5410 5401 5388 5372 5359 5352
5299 5297 5305 5318 5329 5338 5356 5361 5356 5356 5354 5362 5368 5365 5367 5367 5367 5375 5376 5388 5394 5396 5405 5416 5408 5410 5421 5427 5419 5422 5420 5415 5413 5425 5423 5414 5404 5391 5384 5375 5363 5356 5347 5341
5298 5314 5326 5337 5351 5358 5358 5362 5363 5368 5374 5380 5377 5372 5378 5378 5379 5378 5383 5387 5391 5403 5407 5403 5398 5405 5410 5407 5413 5412 5404 5397 5401 5397 5389 5382 5378 5374 5365 5359 5355 5347 5339 5335
5304 5323 5337 5349 5352 5351 5354 5355 5361 5368 5371 5379 5379 5382 5385 5387 5387 5390 5391 5406 5422 5406 5393 5383 5385 5393 5397 5394 5396 5393 5386 5383 5381 5379 5376 5371 5367 5364 5356 5349 5344 5338 5334 5330
5320 5338 5348 5349 5348 5348 5351 5358 5362 5367 5366 5379 5392 5387 5401 5401 5399 5394 5408 5404 5393 5384 5380 5375 5374 5376 5377 5377 5375 5373 5372 5371 5369 5369 5366 5362 5357 5351 5346 5341 5334 5331 5326 5321